User: anonymous   Login
Location: Izdebno
(52.6670°N, 16.2170°E)
Time: 11:44:16
(UTC+02:00)
Language:

SR - Orbit

View from above orbital plane
View from above orbital plane
View from above satellite
View from above satellite

Ground track
Ground track

The orbit data is extracted from the following two-line orbital elements,

1 00046U 60007B   24150.94131434  .00001157  00000-0  24426-3 0  9999
2 00046  66.6887 104.4340 0197129 136.3362 225.3538 14.51933843348242
Epoch (UTC): 29 May 2024 22:35:29
Eccentricity: 0.0197129
inclination: 66.6887°
perigee height: 579 km
apogee height: 859 km
right ascension of ascending node: 104.4340°
argument of perigee: 136.3362°
revolutions per day: 14.51933843
mean anomaly at epoch: 225.3538°
orbit number at epoch: 34824

The dashed part of the orbit path shows where the satellite is in the earth's shadow,  

DLR